This demonstration page uses our WeatherBlox Daily Observations layout. Learn more.

Left ArrowRight Arrow

Hourly Observations for November 5, 2019

Temp ( °F °C ) Dew Point ( °F °C ) Humidity (%) Winds ( mph kmh ) Pressure ( in mb ) Visibility ( mi km ) Precip ( " mm )
12:53 am 00:53 Cloudy 39 3.9 31 -0.6 73 73 Calm 30.29 1026 10 16 0.00 0.00
1:53 am 01:53 Cloudy 38 3.3 32 0 79 79 Calm 30.29 1026 10 16 0.00 0.00
2:53 am 02:53 Cloudy 39 3.9 33 0.6 79 79 WNW 3 6 30.29 1026 10 16 0.00 0.00
3:53 am 03:53 Cloudy 38 3.3 33 0.6 83 83 Calm 30.30 1026 10 16 0.00 0.00
4:53 am 04:53 Cloudy 37 2.8 32 0 82 82 NE 3 6 30.30 1026 10 16 0.00 0.00
5:53 am 05:53 Cloudy 38 3.3 32 0 79 79 Calm 30.30 1026 10 16 0.00 0.00
6:53 am 06:53 Cloudy 38 3.3 33 0.6 83 83 Calm 30.31 1026 10 16 0.00 0.00
7:53 am 07:53 Cloudy 39 3.9 32 0 76 76 SE 5 7 30.33 1027 10 16 0.00 0.00
8:53 am 08:53 Cloudy 39 3.9 32 0 76 76 SSE 6 9 30.34 1027 10 16 0.00 0.00
9:53 am 09:53 Cloudy 41 5 32 0 70 70 S 8 13 30.33 1027 10 16 0.00 0.00
10:53 am 10:53 Cloudy 44 6.7 33 0.6 65 65 S 7 11 30.32 1027 10 16 0.00 0.00
11:53 am 11:53 Cloudy 46 7.8 34 1.1 63 63 SSW 13 20 30.29 1026 10 16 0.00 0.00
12:28 pm 12:28 Mostly Cloudy 50 10 36 2 58 58 SW 12 19 30.24 1024 10 16 0.00 0.00
12:53 pm 12:53 Cloudy 50 10 35 1.7 57 57 SSW 15 24 30.24 1024 10 16 0.00 0.00
1:53 pm 13:53 Cloudy 53 11.7 35 1.7 51 51 SSW 15 24 30.20 1023 10 16 0.00 0.00
2:53 pm 14:53 Sunny 52 11.1 34 1.1 50 50 SSW 14 22 30.19 1022 10 16 0.00 0.00
3:53 pm 15:53 Sunny 54 12.2 36 2.2 51 51 SSW 12 19 30.17 1022 10 16 0.00 0.00
4:53 pm 16:53 Sunny 53 11.7 35 1.7 51 51 SSW 9 15 30.16 1021 10 16 0.00 0.00
5:53 pm 17:53 Clear 51 10.6 35 1.7 54 54 S 7 11 30.16 1021 10 16 0.00 0.00
6:53 pm 18:53 Clear 47 8.3 34 1.1 61 61 S 7 11 30.18 1022 10 16 0.00 0.00
7:53 pm 19:53 Clear 45 7.2 34 1.1 66 66 S 7 11 30.18 1022 10 16 0.00 0.00
8:53 pm 20:53 Clear 43 6.1 33 0.6 68 68 S 8 13 30.17 1022 10 16 0.00 0.00
9:53 pm 21:53 Clear 44 6.7 33 0.6 65 65 SSW 9 15 30.18 1022 10 16 0.00 0.00
10:53 pm 22:53 Clear 44 6.7 33 0.6 65 65 SSW 10 17 30.17 1022 10 16 0.00 0.00
11:53 pm 23:53 Clear 43 6.1 33 0.6 68 68 SSW 9 15 30.17 1022 10 16 0.00 0.00

Powered by AerisWeather